Location: Koslow
(50.3020°N, 18.5663°E)
Time: 13:02:07
(UTC+00:00)

SL-8 Rocket - Pass Details

Date: 07 June 2020
Orbit: 956 x 991 km, 82.9° (Epoch: 11 July)

Event Time Altitude Azimuth Distance (km) Brightness Sun altitude
Exits shadow 01:26:50 - 181° (S) 3,398 6.4 -8.6°
Reaches altitude 10° 01:28:36 10° 180° (S) 2,737 5.9 -8.4°
Maximum altitude 01:34:51 75° 96° (E) 1,019 4.2 -7.8°
Drops below altitude 10° 01:41:06 10° 12° (NNE) 2,733 7.5 -7.2°
Sets 01:43:37 0° 11° (NNE) 3,680 8.2 -6.9°
